Flag for Brazil Weather past 2 weeks in Rio Branco, Acre, Brazil

Now
72 °F

Passing clouds.


Feels Like: 67 °F
Forecast: 71 / 79 °F
Wind: 2 mph from South

Location: Rio Branco Airport

Current Time: Mar 4, 2015 at 9:47:33 PM

Latest Report: Mar 4, 2015 at 9:00 PM


Visibility: N/A

Pressure: 29.83 "Hg

Humidity: 94%

Dew point: 70 °F

Location of Rio BrancoLocation

Historic Weather in Rio Branco — Graph

°F

Rio Branco temperature yesterday

Maximum temperature yesterday: 86 °F (at 12:00 PM)
Minimum temperature yesterday: 72 °F (at 4:00 AM)
Average temperature yesterday: 75 °F

Past Weeks' High & Low Weather Summary

 TemperatureHumidityPressure
High88 °F (Feb 27, 3:00 PM)100% (Feb 18, 3:00 AM)29.98 "Hg (Feb 18, 3:00 AM)
Low37 °F (Feb 18, 3:00 AM)29% (Feb 26, 4:00 AM)29.71 "Hg (Feb 18, 4:00 PM)
Average74 °F88%29.85 "Hg
* Reported Feb 17 9:00 PM — Mar 4 9:00 PM, Rio Branco, Weather by CustomWeather, © 2015

Note: Actual official high and low records may vary slightly from our data, if they occured in-between our weather recording intervals... More about our weather records

Advertising

Rio Branco weather history for previous 24 hours

 ConditionsComfort  
Time TempWeatherWind HumidityBarometerVisibility
9:00 PM
Wed, Mar 4
72 °FPassing clouds.2 mph94%29.83 "HgN/A
7:00 PM72 °FThundershowers. Partly cloudy.2 mph94%29.83 "HgN/A
6:00 PM72 °FPartly sunny.No wind94%29.77 "HgN/A
5:00 PM72 °FBroken clouds.5 mph94%29.77 "HgN/A
4:00 PM37 °FThunderstorms. Broken clouds.10 mph100%29.77 "Hg3 mi
3:00 PMN/AThunderstorms.8 mphN/AN/A6 mi
1:00 PMN/ABroken clouds.13 mphN/AN/A6 mi
11:00 AM82 °FScattered showers. Partly sunny.7 mph74%29.89 "HgN/A
10:00 AM79 °FPartly sunny.9 mph84%29.92 "HgN/A
9:00 AM75 °FPartly sunny.8 mph89%29.92 "HgN/A
8:00 AM75 °FPartly sunny.3 mph89%29.89 "HgN/A
7:00 AM72 °FBroken clouds.2 mph100%29.86 "HgN/A
6:00 AM72 °FFog.2 mph94%29.83 "Hg1 mi
5:00 AM72 °FFog.2 mph94%29.80 "Hg1 mi
4:00 AM72 °FFog.No wind94%29.80 "Hg3 mi
3:00 AM72 °FFog.No wind94%29.80 "Hg3 mi
2:00 AM72 °FFog.2 mph94%29.80 "Hg1 mi
1:00 AM72 °FFog.2 mph94%29.83 "Hg3 mi
12:00 AM70 °FFog.No wind100%29.83 "Hg3 mi
11:00 PM
Tue, Mar 3
72 °FFog.2 mph94%29.83 "Hg1 mi
10:00 PM72 °FFog.3 mph94%29.83 "Hg1 mi
9:00 PM72 °FPassing clouds.3 mph94%29.83 "HgN/A
Weather by CustomWeather, © 2015

See weather overviewHow to use our weather pages